Airfield :
LOGIN :

Register | Disclaimer

   EN    FR    IT 

 










Legend :    VFR   Marginal VFR   IFR   Intensive IFR   Very Intensive IFR
Visi :
Ceiling :
>= 8 km
>= 3000ft
5 to 8 km
1000 to 3000 ft
1500m to 5 km
500 to 1000 ft
800 to 1500m
200 to 500 ft
< 800m
< 200 ft
Symbols :   Thunderstorms  Fog  Heavy snow  Heavy precipitations  Wind > 20 kt
SIGMETs :     Misc.  Thunderstorms  Icing  Turbulence  Mountain Waves  Volcanic Ashes







- Airport Elevation : 112 ft
- IATA code : SVQ


LEZL - Sevilla San Pablo

CURRENT METAR :
  • 210830Z VRB01KT CAVOK 20/15 Q1013 NOSIG

EXPIRED METARs :
  • 210800Z VRB01KT CAVOK 18/14 Q1013 NOSIG
  • 210730Z VRB01KT CAVOK 17/14 Q1012 NOSIG
  • 210700Z VRB02KT CAVOK 16/15 Q1012 NOSIG
  • 210630Z 03003KT 360V080 CAVOK 16/15 Q1012 NOSIG
  • 210600Z VRB01KT CAVOK 16/15 Q1012 NOSIG

TAF TAF LEZL
Valid from the 21 at 03:00 until the 22 at 03:00 UTC


210200Z 2103/2203 21006KT 9999 FEW040 TX24/2115Z TN15/2106Z
PROB40
TEMPO 2110/2118 4000 SHRA SCT030CB
No reported NOTAMs for that airfield.



MET'MAP, your aeronautical weather chart ! - Copyright ORBIFLY December 2007 - Disclaimer

ORBIFLY MET'MAP TEAM :

Programming & Development : Alexandra Zaïnal
Concept & Development : Baudouin d'Aumeries
Co-Development & Prog : Marc-Olivier Méhu
Technical & hardware support : Manuel Goepfert

Contact : metmap@orbifly.com




SOURCES & CREDITS :

   NOAA